SCP
0 0 0 0 0 0 0 0 0 0 0 0 0 0 0 0 0 0 0 0 0 0
0 0 0 0 0 0 0 0 0 0 0 0 0 0 0 0 0 0 0 0 0 0
0 0 0 0 0 0 0 0 0 0 0 0 0 0 0 0 0 0 0 0 0 0
0 0 0 0 0 0 0 0 0 0 0 0 0 0 0 0 0 0 0 0 0 0
0 0 0 0 0 0 0 0 0 0 0 0 0 0 0 0 0 0 0 0 0 0
0 0 0 0 0 0 0 0 0 0 0 0 0 0 0 0 0 0 0 0 0 0
0 0 0 0 0 0 0 0 0 0 0 0 0 0 0 0 0 0 0 0 0 0
0 0 0 0 0 0 0 0 0 0 0 0 0 0 0 0 0 0 0 0 0 0
0 0 0 0 0 0 0 0 0 0 0 0 0 0 0 0 0 0 0 0 0 0
0 0 0 0 0 0 0 0 0 0 0 0 0 0 0 0 0 0 0 0 0 0
0 0 0 0 0 0 0 0 0 0 0 0 0 0 0 0 0 0 0 0 0 0
0 0 0 0 0 0 0 0 0 0 0 0 0 0 0 0 0 0 0 0 0 0
0 0 0 0 0 0 0 0 0 0 0 0 0 0 0 0 0 0 0 0 0 0
0 0 0 0 0 0 0 0 0 0 0 0 0 0 0 0 0 0 0 0 0 0
Wind_Speed_500mb
71 68 62 57 46 37 36 36 33 30 34 35 37 42 45 47 42 39 38 38 36 38
69 67 64 56 48 44 43 40 34 33 36 37 40 43 45 45 43 42 41 41 41 44
56 56 61 57 52 50 45 38 35 36 37 40 42 45 47 48 46 46 47 48 49 50
49 56 64 61 57 52 42 35 34 35 39 43 45 48 51 51 50 52 52 51 52 56
48 52 55 56 52 45 35 31 33 38 44 48 48 50 53 54 53 55 57 57 57 62
45 45 41 41 40 34 30 33 37 44 50 52 51 53 54 57 60 62 62 62 65 71
45 39 33 29 29 30 32 36 42 49 53 54 53 57 61 65 69 70 71 71 75 78
40 33 31 32 34 35 39 42 46 51 53 54 58 63 69 74 77 80 81 82 81 78
39 41 45 44 46 47 45 42 47 51 54 58 63 70 74 78 82 82 80 78 78 76
55 58 56 54 53 47 43 46 49 52 57 64 71 74 78 75 71 67 68 70 72 75
60 57 55 52 48 43 45 48 52 58 64 71 72 71 67 60 58 63 67 69 70 70
54 55 50 43 40 45 49 53 61 66 68 68 66 63 59 56 63 73 76 76 76 74
43 36 35 39 44 47 54 63 63 63 63 64 65 60 65 69 75 84 90 92 94 94
43 42 42 42 52 60 63 60 59 62 63 63 66 72 71 68 72 79 82 78 82 81
Wind_Direction_500mb
214 215 223 228 227 236 249 267 274 286 299 303 308 315 324 325 325 321 318 315 313 313
220 222 221 222 229 237 251 264 269 285 293 298 307 314 317 319 320 316 315 313 311 311
223 233 231 226 229 240 254 262 276 287 296 301 304 312 315 319 319 314 314 311 309 310
220 228 235 237 237 242 252 267 280 291 298 304 307 312 315 317 316 312 310 307 304 305
218 221 228 230 233 243 255 267 284 296 302 306 309 311 312 313 312 310 307 306 302 301
216 220 215 218 232 244 259 276 291 300 302 304 309 308 310 312 311 309 305 303 298 295
211 210 219 230 243 256 271 282 291 297 300 304 308 310 311 310 309 306 302 297 293 289
207 215 226 235 246 255 265 276 287 296 299 305 306 308 307 306 304 301 298 296 291 286
213 221 229 235 241 248 257 273 282 288 296 300 302 302 301 300 298 298 298 300 299 294
221 227 229 231 234 241 253 267 279 290 295 296 298 299 299 299 299 299 297 296 298 296
228 226 224 223 228 243 263 275 284 289 292 296 299 300 300 300 296 295 295 296 295 292
211 207 209 224 246 265 274 284 290 292 295 298 299 299 302 308 308 305 301 297 293 288
192 205 229 252 266 276 286 289 290 294 296 299 302 307 311 315 309 300 297 294 290 287
233 239 247 267 282 289 290 291 295 297 300 303 306 310 312 308 304 303 302 301 298 296
Wind_Speed_850mb
71 68 62 57 46 37 36 36 33 30 34 35 37 42 45 47 42 39 38 38 36 38
69 67 64 56 48 44 43 40 34 33 36 37 40 43 45 45 43 42 41 41 41 44
56 56 61 57 52 50 45 38 35 36 37 40 42 45 47 48 46 46 47 48 49 50
49 56 64 61 57 52 42 35 34 35 39 43 45 48 51 51 50 52 52 51 52 56
48 52 55 56 52 45 35 31 33 38 44 48 48 50 53 54 53 55 57 57 57 62
45 45 41 41 40 34 30 33 37 44 50 52 51 53 54 57 60 62 62 62 65 71
45 39 33 29 29 30 32 36 42 49 53 54 53 57 61 65 69 70 71 71 75 78
40 33 31 32 34 35 39 42 46 51 53 54 58 63 69 74 77 80 81 82 81 78
39 41 45 44 46 47 45 42 47 51 54 58 63 70 74 78 82 82 80 78 78 76
55 58 56 54 53 47 43 46 49 52 57 64 71 74 78 75 71 67 68 70 72 75
60 57 55 52 48 43 45 48 52 58 64 71 72 71 67 60 58 63 67 69 70 70
54 55 50 43 40 45 49 53 61 66 68 68 66 63 59 56 63 73 76 76 76 74
43 36 35 39 44 47 54 63 63 63 63 64 65 60 65 69 75 84 90 92 94 94
43 42 42 42 52 60 63 60 59 62 63 63 66 72 71 68 72 79 82 78 82 81
Wind_Direction_850mb
214 215 223 228 227 236 249 267 274 286 299 303 308 315 324 325 325 321 318 315 313 313
220 222 221 222 229 237 251 264 269 285 293 298 307 314 317 319 320 316 315 313 311 311
223 233 231 226 229 240 254 262 276 287 296 301 304 312 315 319 319 314 314 311 309 310
220 228 235 237 237 242 252 267 280 291 298 304 307 312 315 317 316 312 310 307 304 305
218 221 228 230 233 243 255 267 284 296 302 306 309 311 312 313 312 310 307 306 302 301
216 220 215 218 232 244 259 276 291 300 302 304 309 308 310 312 311 309 305 303 298 295
211 210 219 230 243 256 271 282 291 297 300 304 308 310 311 310 309 306 302 297 293 289
207 215 226 235 246 255 265 276 287 296 299 305 306 308 307 306 304 301 298 296 291 286
213 221 229 235 241 248 257 273 282 288 296 300 302 302 301 300 298 298 298 300 299 294
221 227 229 231 234 241 253 267 279 290 295 296 298 299 299 299 299 299 297 296 298 296
228 226 224 223 228 243 263 275 284 289 292 296 299 300 300 300 296 295 295 296 295 292
211 207 209 224 246 265 274 284 290 292 295 298 299 299 302 308 308 305 301 297 293 288
192 205 229 252 266 276 286 289 290 294 296 299 302 307 311 315 309 300 297 294 290 287
233 239 247 267 282 289 290 291 295 297 300 303 306 310 312 308 304 303 302 301 298 296